Location: Launois
(49.6535°N, 4.5395°E)
Time: 18:17:36
(UTC+00:00)

FENGYUN 1C DEB - Visible Passes

Search period start: 07 October 2024 00:00
Search period end: 17 October 2024 00:00
Orbit: 605 x 918 km, 98.3° (Epoch: 07 October)

Date Brightness Start Highest point End Pass type
(mag) Time Alt. Az. Time Alt. Az. Time Alt. Az.
07 Oct ? 17:46:25 10° SE 17:51:32 43° ENE 17:56:59 10° N visible
07 Oct ? 19:25:33 10° SSW 19:30:31 36° W 19:35:48 10° NNW visible
08 Oct ? 18:46:58 10° S 18:52:24 70° WSW 18:58:14 10° NNW visible
08 Oct ? 20:30:18 10° WSW 20:32:26 12° W 20:34:37 10° WNW visible
09 Oct ? 18:09:07 10° SSE 18:14:33 63° ENE 18:20:20 10° N visible
09 Oct ? 19:49:29 10° SW 19:53:55 24° W 19:58:35 10° NW visible
10 Oct ? 17:31:56 10° SE 17:36:56 35° ENE 17:42:09 10° N visible
10 Oct ? 19:10:20 10° S 19:15:39 47° W 19:21:17 10° NNW visible
11 Oct ? 18:32:02 10° SSE 18:37:37 89° WSW 18:43:32 10° NNW visible
11 Oct ? 20:13:54 10° WSW 20:17:22 17° W 20:20:57 10° NW visible
12 Oct ? 17:54:25 10° SE 17:59:50 50° ENE 18:05:30 10° N visible
12 Oct ? 19:33:58 10° SSW 19:38:56 32° W 19:44:08 10° NNW visible
13 Oct ? 18:55:11 10° S 19:00:44 61° W 19:06:36 10° NNW visible
13 Oct ? 20:39:44 10° W 20:40:52 11° W 20:42:00 10° WNW visible
14 Oct ? 18:17:09 10° SSE 18:22:48 73° ENE 18:28:41 10° N visible
14 Oct ? 19:57:58 10° SW 20:02:16 22° W 20:06:42 10° NW visible
15 Oct ? 17:39:46 10° SE 17:45:03 40° ENE 17:50:31 10° N visible
15 Oct ? 19:18:33 10° SSW 19:23:54 41° W 19:29:28 10° NNW visible
16 Oct ? 18:40:04 10° S 18:45:47 78° WSW 18:51:44 10° NNW visible
16 Oct ? 20:22:33 10° WSW 20:25:38 15° W 20:28:45 10° NW visible
